Date String (YYYY-MM-DD hh:mm:ss) UTC,Instrument flags,Ambient pressure (hPa),Sample flow (lpm),Bypass flow (lpm),Sample temperature (°C),Ambient temperature (°C),ASC tube jacket temperature (°C),LED temperature (°C),Box temperature (°C),Sample RH (%),Span deviation,Mass concentration (μg/m³),Mass concentration (μg/m³),Mass concentration (μg/m³)
DateTimeUTC,F1_M11,P_M11,Q1_M11,Q2_M11,T1_M11,T2_M11,T3_M11,T4_M11,T5_M11,U1_M11,ZSPAN_M11,X2_M11,X0_M11,X1_M11
2022-08-30 21:00:00,,0832.3,4.99,0.00,29.3,28.1,00.0,37.9,31.3,22.5,0000.0,0006.07,0018.99,0004.93
2022-08-30 21:01:00,,0832.3,4.99,0.00,29.4,28.3,00.0,37.9,31.3,22.3,0000.0,0006.13,0019.09,0004.97
2022-08-30 21:02:00,,0832.4,4.99,0.00,29.4,27.8,00.0,37.9,31.3,22.6,0000.0,0006.19,0019.62,0004.99
2022-08-30 21:03:00,,0832.3,5.01,0.00,29.4,26.7,00.0,37.9,31.2,22.5,0000.0,0006.23,0020.33,0005.00
2022-08-30 21:04:00,,0832.3,4.99,0.00,29.3,26.5,00.0,37.9,31.1,22.4,0000.0,0006.27,0021.38,0005.03
2022-08-30 21:05:00,,0832.3,5.00,0.00,29.3,26.8,00.0,37.9,31.1,22.7,0000.0,0006.33,0021.06,0005.05
2022-08-30 21:06:00,,0832.3,5.01,0.00,29.2,27.1,00.0,37.9,30.9,22.8,0000.0,0006.37,0020.61,0005.06
2022-08-30 21:07:00,,0832.2,5.00,0.00,29.2,27.4,00.0,37.9,31.0,22.2,0000.0,0006.36,0021.07,0005.07
2022-08-30 21:08:00,,0832.3,5.00,0.00,29.3,27.7,00.0,37.9,31.1,22.1,0000.0,0006.28,0020.20,0005.05
2022-08-30 21:09:00,,0832.3,5.00,0.00,29.3,27.9,00.0,37.9,31.2,22.7,0000.0,0006.22,0020.31,0005.03
2022-08-30 21:10:00,,0832.3,5.00,0.00,29.3,28.2,00.0,37.9,31.3,22.5,0000.0,0006.23,0019.97,0005.04
2022-08-30 21:11:00,,0832.3,4.99,0.00,29.4,28.4,00.0,37.9,31.3,22.0,0000.0,0006.26,0020.48,0005.05
2022-08-30 21:12:00,,0832.3,5.00,0.00,29.4,28.0,00.0,38.0,31.4,21.1,0000.0,0006.27,0020.51,0005.05
2022-08-30 21:13:00,,0832.2,5.00,0.00,29.4,26.8,00.0,37.9,31.2,17.4,0000.0,0006.22,0020.30,0004.99
2022-08-30 21:14:00,,0832.1,5.00,0.00,29.3,26.4,00.0,37.9,31.2,15.0,0000.0,0006.05,0021.12,0004.87
2022-08-30 21:15:00,,0832.1,5.01,0.00,29.3,26.8,00.0,37.9,31.1,14.6,0000.0,0005.84,0020.26,0004.73
2022-08-30 21:16:00,,0832.1,4.99,0.00,29.3,27.1,00.0,37.9,31.0,15.4,0000.0,0005.62,0018.93,0004.59
2022-08-30 21:17:00,,0832.1,5.00,0.00,29.3,27.4,00.0,37.9,31.1,16.2,0000.0,0005.46,0018.65,0004.48
2022-08-30 21:18:00,,0832.1,5.01,0.00,29.3,27.7,00.0,37.9,31.1,17.0,0000.0,0005.31,0017.02,0004.38
2022-08-30 21:19:00,,0832.2,5.01,0.00,29.3,27.9,00.0,37.9,31.2,16.9,0000.0,0005.25,0016.66,0004.31
2022-08-30 21:20:00,,0832.2,4.99,0.00,29.4,28.2,00.0,37.9,31.3,16.5,0000.0,0005.17,0016.31,0004.22
2022-08-30 21:21:00,,0832.1,5.00,0.00,29.4,28.3,00.0,37.9,31.3,16.6,0000.0,0005.03,0014.81,0004.13
2022-08-30 21:22:00,,0832.1,4.99,0.00,29.4,27.5,00.0,38.0,31.3,16.5,0000.0,0004.85,0013.78,0004.01
2022-08-30 21:23:00,,0832.1,5.00,0.00,29.4,26.5,00.0,37.9,31.2,17.0,0000.0,0004.70,0013.37,0003.92
2022-08-30 21:24:00,,0832.1,5.00,0.00,29.3,26.6,00.0,37.9,31.2,17.2,0000.0,0004.60,0012.84,0003.88
2022-08-30 21:25:00,,0832.1,5.01,0.00,29.3,26.9,00.0,37.9,31.1,17.2,0000.0,0004.57,0011.28,0003.89
2022-08-30 21:26:00,,0832.1,4.99,0.00,29.3,27.2,00.0,37.9,31.0,17.6,0000.0,0004.63,0010.90,0003.94
2022-08-30 21:27:00,,0832.1,5.00,0.00,29.3,27.5,00.0,37.9,31.1,18.0,0000.0,0004.68,0011.14,0003.99
2022-08-30 21:28:00,,0832.2,5.00,0.00,29.3,27.8,00.0,37.9,31.2,18.2,0000.0,0004.77,0011.87,0004.04
2022-08-30 21:29:00,,0832.2,5.01,0.00,29.3,28.0,00.0,37.9,31.2,19.1,0000.0,0004.79,0012.13,0004.09
2022-08-30 21:30:00,,0832.1,4.99,0.00,29.4,28.3,00.0,37.9,31.3,19.2,0000.0,0004.81,0011.99,0004.13
2022-08-30 21:31:00,,0832.1,5.00,0.00,29.4,28.2,00.0,37.9,31.4,18.7,0000.0,0004.87,0012.11,0004.19
2022-08-30 21:32:00,,0832.0,5.00,0.00,29.4,27.0,00.0,37.9,31.3,18.1,0000.0,0004.88,0012.72,0004.22
2022-08-30 21:33:00,,0832.0,5.00,0.00,29.4,26.5,00.0,37.9,31.2,18.6,0000.0,0004.94,0012.70,0004.26
2022-08-30 21:34:00,,0832.1,5.00,0.00,29.4,26.8,00.0,37.9,31.2,19.6,0000.0,0004.99,0012.52,0004.30
2022-08-30 21:35:00,,0832.1,5.00,0.00,29.3,27.1,00.0,37.9,31.1,19.9,0000.0,0005.10,0012.95,0004.35
2022-08-30 21:36:00,,0832.1,4.99,0.00,29.3,27.4,00.0,37.9,31.1,20.2,0000.0,0005.24,0013.53,0004.40
2022-08-30 21:37:00,,0832.1,5.00,0.00,29.3,27.7,00.0,37.9,31.1,19.6,0000.0,0005.32,0014.07,0004.44
2022-08-30 21:38:00,,0832.1,5.01,0.00,29.4,28.0,00.0,37.9,31.2,19.5,0000.0,0005.41,0014.56,0004.47
2022-08-30 21:39:00,,0832.1,4.99,0.00,29.4,28.2,00.0,37.9,31.3,19.6,0000.0,0005.39,0014.15,0004.48
2022-08-30 21:40:00,,0832.1,5.00,0.00,29.4,28.4,00.0,38.0,31.4,17.9,0000.0,0005.39,0014.09,0004.48
2022-08-30 21:41:00,,0832.1,5.01,0.00,29.5,28.4,00.0,38.0,31.5,18.2,0000.0,0005.41,0014.10,0004.49
2022-08-30 21:42:00,,0832.1,4.99,0.00,29.5,27.4,00.0,38.0,31.4,17.8,0000.0,0005.45,0014.52,0004.48
2022-08-30 21:43:00,,0832.0,5.00,0.00,29.4,26.7,00.0,38.0,31.3,17.7,0000.0,0005.50,0014.77,0004.49
2022-08-30 21:44:00,,0832.0,5.00,0.00,29.4,26.9,00.0,38.0,31.3,17.9,0000.0,0005.54,0015.19,0004.50
2022-08-30 21:45:00,,0832.0,4.98,0.00,29.4,27.1,00.0,37.9,31.1,18.2,0000.0,0005.54,0015.30,0004.49
2022-08-30 21:46:00,,0831.9,5.01,0.00,29.4,27.4,00.0,37.9,31.1,18.0,0000.0,0005.50,0015.30,0004.48
2022-08-30 21:47:00,,0832.0,5.00,0.00,29.4,27.7,00.0,37.9,31.2,18.2,0000.0,0005.43,0015.29,0004.46
2022-08-30 21:48:00,,0832.0,5.00,0.00,29.4,28.0,00.0,37.9,31.3,18.1,0000.0,0005.38,0015.36,0004.44
2022-08-30 21:49:00,,0832.0,5.01,0.00,29.4,28.2,00.0,38.0,31.3,17.6,0000.0,0005.31,0015.11,0004.42
2022-08-30 21:50:00,,0832.0,4.99,0.00,29.5,28.5,00.0,38.0,31.4,18.1,0000.0,0005.28,0015.40,0004.40
2022-08-30 21:51:00,,0831.9,4.99,0.00,29.5,28.1,00.0,38.0,31.5,19.2,0000.0,0005.29,0017.10,0004.40
2022-08-30 21:52:00,,0831.9,5.00,0.00,29.5,26.9,00.0,38.0,31.3,19.5,0000.0,0005.32,0017.66,0004.41
2022-08-30 21:53:00,,0831.9,5.00,0.00,29.5,26.7,00.0,38.0,31.3,19.7,0000.0,0005.35,0017.76,0004.44
2022-08-30 21:54:00,,0831.9,4.99,0.00,29.4,27.0,00.0,38.0,31.2,20.0,0000.0,0005.46,0017.93,0004.48
2022-08-30 21:55:00,,0832.0,5.02,0.00,29.4,27.2,00.0,38.0,31.1,19.8,0000.0,0005.57,0018.56,0004.51
2022-08-30 21:56:00,,0831.9,5.00,0.00,29.4,27.5,00.0,38.0,31.2,20.0,0000.0,0005.59,0019.80,0004.54
2022-08-30 21:57:00,,0831.9,5.00,0.00,29.4,27.8,00.0,38.0,31.2,20.0,0000.0,0005.66,0020.11,0004.57
2022-08-30 21:58:00,,0832.0,5.01,0.00,29.4,28.1,00.0,38.0,31.3,20.2,0000.0,0005.72,0020.87,0004.61
2022-08-30 21:59:00,,0832.0,5.00,0.00,29.5,28.3,00.0,38.0,31.4,20.3,0000.0,0005.76,0020.63,0004.65
